TimeCDT,TemperatureF,Dew PointF,Humidity,Sea Level PressureIn,VisibilityMPH,Wind Direction,Wind SpeedMPH,Gust SpeedMPH,PrecipitationIn,Events,Conditions,WindDirDegrees,DateUTC
12:15 AM,68.0,62.6,83,30.26,10.0,Calm,Calm,-,N/A,,Clear,0,2013-07-15 05:15:00
12:35 AM,66.2,62.6,88,30.27,10.0,Calm,Calm,-,N/A,,Clear,0,2013-07-15 05:35:00
12:55 AM,64.4,62.6,94,30.27,10.0,Calm,Calm,-,N/A,,Clear,0,2013-07-15 05:55:00
1:15 AM,66.2,62.6,88,30.27,10.0,Calm,Calm,-,N/A,,Clear,0,2013-07-15 06:15:00
1:35 AM,64.4,62.6,94,30.27,10.0,Calm,Calm,-,N/A,,Clear,0,2013-07-15 06:35:00
1:55 AM,66.2,62.6,88,30.27,7.0,Calm,Calm,-,N/A,,Clear,0,2013-07-15 06:55:00
2:15 AM,64.4,62.6,94,30.27,10.0,Calm,Calm,-,N/A,,Clear,0,2013-07-15 07:15:00
2:35 AM,64.4,62.6,94,30.27,10.0,Calm,Calm,-,N/A,,Clear,0,2013-07-15 07:35:00
2:55 AM,64.4,62.6,94,30.28,10.0,Calm,Calm,-,N/A,,Clear,0,2013-07-15 07:55:00
3:15 AM,64.4,62.6,94,30.28,10.0,Calm,Calm,-,N/A,,Clear,0,2013-07-15 08:15:00
3:35 AM,64.4,62.6,94,30.28,7.0,Calm,Calm,-,N/A,,Clear,0,2013-07-15 08:35:00
3:55 AM,64.4,62.6,94,30.29,7.0,Calm,Calm,-,N/A,,Scattered Clouds,0,2013-07-15 08:55:00
4:15 AM,64.4,62.6,94,30.29,7.0,Calm,Calm,-,N/A,,Scattered Clouds,0,2013-07-15 09:15:00
4:35 AM,64.4,62.6,94,30.29,7.0,Calm,Calm,-,N/A,,Clear,0,2013-07-15 09:35:00
4:55 AM,62.6,62.6,100,30.29,5.0,Calm,Calm,-,N/A,,Clear,0,2013-07-15 09:55:00
5:15 AM,62.6,62.6,100,30.29,5.0,Calm,Calm,-,N/A,,Clear,0,2013-07-15 10:15:00
5:35 AM,64.4,62.6,94,30.29,3.0,Calm,Calm,-,N/A,,Clear,0,2013-07-15 10:35:00
5:45 AM,64.4,64.4,100,30.29,7.0,Calm,Calm,-,N/A,,Clear,0,2013-07-15 10:45:00
6:45 AM,68.0,66.2,94,30.30,7.0,Calm,Calm,-,N/A,,Clear,0,2013-07-15 11:45:00
7:45 AM,75.2,68.0,78,30.30,10.0,Calm,Calm,-,N/A,,Clear,0,2013-07-15 12:45:00
8:45 AM,78.8,71.6,78,30.31,10.0,Calm,Calm,-,N/A,,Clear,0,2013-07-15 13:45:00
9:45 AM,82.4,69.8,66,30.31,10.0,SE,5.8,-,N/A,,Scattered Clouds,140,2013-07-15 14:45:00
10:45 AM,84.2,68.0,58,30.31,10.0,ESE,4.6,-,N/A,,Clear,110,2013-07-15 15:45:00
11:45 AM,82.4,69.8,66,30.30,10.0,Calm,Calm,-,N/A,,Mostly Cloudy,0,2013-07-15 16:45:00
12:45 PM,84.2,71.6,66,30.30,10.0,East,8.1,-,N/A,,Mostly Cloudy,100,2013-07-15 17:45:00
1:45 PM,84.2,69.8,62,30.29,10.0,ENE,6.9,-,N/A,,Mostly Cloudy,70,2013-07-15 18:45:00
2:45 PM,86.0,71.6,62,30.28,10.0,East,11.5,16.1,N/A,,Mostly Cloudy,90,2013-07-15 19:45:00
3:45 PM,82.4,71.6,70,30.27,10.0,East,8.1,-,N/A,,Mostly Cloudy,90,2013-07-15 20:45:00
4:45 PM,82.4,71.6,70,30.26,10.0,East,10.4,17.3,N/A,,Mostly Cloudy,90,2013-07-15 21:45:00
5:45 PM,80.6,69.8,70,30.27,10.0,ESE,10.4,-,N/A,,Mostly Cloudy,120,2013-07-15 22:45:00
6:45 PM,78.8,71.6,78,30.27,10.0,ENE,5.8,-,N/A,,Mostly Cloudy,70,2013-07-15 23:45:00
7:45 PM,78.8,71.6,78,30.26,10.0,ESE,5.8,-,N/A,,Scattered Clouds,110,2013-07-16 00:45:00
8:45 PM,77.0,69.8,78,30.27,10.0,ESE,5.8,-,N/A,,Scattered Clouds,120,2013-07-16 01:45:00
9:15 PM,77.0,69.8,78,30.27,10.0,SE,3.5,-,N/A,,Clear,130,2013-07-16 02:15:00
9:35 PM,73.4,68.0,83,30.28,10.0,East,4.6,-,N/A,,Clear,100,2013-07-16 02:35:00
9:55 PM,73.4,69.8,88,30.29,10.0,Calm,Calm,-,N/A,,Clear,0,2013-07-16 02:55:00
10:15 PM,73.4,69.8,88,30.29,10.0,SE,4.6,-,N/A,,Scattered Clouds,130,2013-07-16 03:15:00
10:35 PM,73.4,68.0,83,30.29,10.0,ESE,4.6,-,N/A,,Scattered Clouds,110,2013-07-16 03:35:00
10:55 PM,73.4,68.0,83,30.29,10.0,Calm,Calm,-,N/A,,Mostly Cloudy,0,2013-07-16 03:55:00
11:15 PM,73.4,68.0,83,30.29,10.0,Calm,Calm,-,N/A,,Scattered Clouds,0,2013-07-16 04:15:00
11:35 PM,73.4,68.0,83,30.29,10.0,South,4.6,-,N/A,,Clear,170,2013-07-16 04:35:00
11:55 PM,73.4,69.8,88,30.28,10.0,South,4.6,-,N/A,,Clear,180,2013-07-16 04:55:00